Hauptseite
METAR-TAF:

METAR-TAF

Flughäfen :

Landsberg, Deutschland

Fliegerhorst Landsberg/Lech

Breite: 48-04N, Länge: 010-54E, Höhe: 623 m

Beobachtung

Neuester Wetterbericht von vor 34 Minuten, um 09:20 UTC
Wind 6 kt aus West/Nordwest
Temperatur 22°C
Luftfeuchtigkeit 38%
Luftdruck 1022 hPa
Sichtweite 10 km oder mehr

METAR: ETSA 210920Z AUTO 29006KT 9999 // ////// 22/07 Q1022 ///

Zeit: 11:54 (09:54 UTC)


TAF: fehlend

Wetterbeobachtungen und Prognosen von mehr als 4000 Flughäfen (METAR und TAF Bericht).

Die verfügbaren Stationen werden durch gelbe und rote Markierungen auf der Karte dargestellt.

Führen Sie die Maus auf sie, um den Namen der Station zu sehen.

Darauf klicken, um die Beobachtung von Wetterbeobachtungen und Prognosen zu sehen.

Um die Karte zu ändern : klicken Sie auf den grünen Tasten mit einem schwarzen Kreuz Zum Vergrößern, auf den grünen Button mit einem Gedankenstrich zu verkleinern, oder auf die grünen Pfeile für benachbarte Karten.


METAR-TAF: